{"data":{"norad_id":57226,"intl_designator":"2023-094J","name":"STARLINK-6350","alt_names":[],"object_type":"PAYLOAD","status":"ACTIVE","operator":null,"country":"US","launch_date":"2023-07-07","launch_site_code":"AFWTR","launch_vehicle":null,"mission":null,"orbit_class":"UNKNOWN","rcs_meters":null,"size_class":null,"mass_kg":null,"dimensions":null,"purposes":["comms"],"wikipedia_slug":null,"has_3d_model":false,"image_url":null,"decayed_at":null,"tle_current":{"epoch":"2026-05-25T04:42:50.649120Z","epoch_age_seconds":58900,"freshness":"FRESH","line1":"1 57226U 23094J   26145.19641955 -.00002111  00000+0 -67245-4 0  9992","line2":"2 57226  43.0063 318.8674 0001728 265.5438  94.5217 15.27561225158815","mean_motion":15.27561225,"eccentricity":0.0001728,"inclination_deg":43.0063,"raan_deg":318.8674,"arg_perigee_deg":265.5438,"mean_anomaly_deg":94.5217,"bstar":-6.7245e-5,"rev_number":15881,"period_min":94.267907330523,"perigee_km":481.91969304758,"apogee_km":484.2909383919,"semimajor_km":6861.2423157197,"source":"CELESTRAK","updated_at":"2026-05-25T13:38:18.253356Z"}}}